Theta_e
317 317 317 318 319 320 320 320 320 321 321 321 322 322 323 322 321 322 323 322 322 323 324 324 324 323 323 323 323 321 310 295 297 297 298 297 309 321 324 325 324 325 313 297 294 296 293 291 293 292 292 293 290 289 290 290 287 286 281 279 279 276 278 281 283 283 281 286 285 287 285 286 285 288 290 290 289 285 287 287 289 290 290 290 289 291 292 292
318 318 318 319 320 320 320 321 321 322 322 322 322 323 323 323 322 322 323 322 323 324 324 324 323 322 323 324 323 318 298 297 295 298 296 308 323 325 324 324 326 325 312 298 293 289 293 292 292 292 289 289 289 289 290 288 287 281 277 279 278 277 281 283 282 284 287 285 287 287 286 286 287 287 289 287 285 285 287 287 286 288 290 291 291 291 292 291
319 319 319 319 319 320 321 322 322 322 323 322 323 322 324 324 323 323 323 323 323 323 323 324 323 322 323 323 321 320 302 293 298 295 299 318 322 325 324 326 322 315 300 298 297 292 292 292 292 292 288 287 289 287 289 288 287 281 281 279 280 280 282 281 284 285 285 288 287 286 285 286 287 287 290 287 284 285 285 284 286 286 288 288 289 289 290 290
319 319 319 319 319 320 321 321 322 322 323 323 322 323 323 322 323 324 324 323 323 323 323 324 323 323 323 321 320 299 296 292 291 294 298 318 320 324 323 325 320 307 301 298 293 292 291 291 291 291 287 287 285 286 288 288 285 283 283 277 283 281 282 285 285 286 287 290 287 285 285 285 287 286 288 285 285 285 284 285 289 287 287 288 289 289 289 289
319 319 319 320 320 321 321 321 322 323 323 323 323 323 323 323 323 323 323 324 323 324 324 323 324 324 322 316 318 297 294 286 291 295 301 317 320 321 322 323 318 298 300 296 294 291 293 291 288 288 288 284 285 283 283 285 284 283 282 281 282 282 284 286 286 287 287 285 286 283 286 286 288 287 286 285 284 282 285 290 288 289 289 288 289 290 288 288
317 318 320 320 320 321 322 322 322 322 322 321 323 322 323 323 322 323 323 324 324 325 325 325 325 323 323 313 297 297 293 281 294 297 314 316 319 319 319 321 312 297 294 292 292 291 290 291 290 284 283 284 284 285 285 285 288 284 283 282 283 283 285 285 286 286 287 285 285 284 286 287 287 286 284 285 286 285 288 288 289 290 290 290 290 289 289 288
318 319 318 319 319 321 321 321 321 321 322 323 323 324 323 323 323 324 324 324 324 325 325 325 323 322 321 311 299 301 295 292 294 299 310 315 317 315 314 311 308 296 294 292 290 290 289 290 289 283 283 284 285 286 287 287 288 286 282 283 285 285 287 285 286 285 285 287 286 286 287 287 285 286 285 284 288 290 290 288 289 289 290 290 289 289 288 288
319 319 319 319 319 320 320 320 321 322 323 322 322 323 324 324 323 324 324 325 325 325 324 323 322 322 317 299 297 294 294 292 298 299 306 312 303 303 308 299 298 298 296 291 292 291 289 289 290 286 285 284 286 287 286 288 286 284 283 284 285 284 284 283 283 283 285 285 284 286 286 286 284 286 285 286 289 290 290 288 288 288 287 287 287 288 288 287
319 319 318 318 319 319 319 320 321 322 322 322 323 323 324 323 322 323 324 324 325 325 323 323 322 319 314 298 293 294 292 297 299 298 297 296 297 299 299 299 297 298 293 292 291 291 291 288 289 286 286 285 286 287 286 285 284 283 285 283 284 284 284 285 285 284 284 286 285 287 285 283 284 285 285 289 289 290 288 288 288 288 288 287 287 287 287 287
319 319 318 318 319 319 320 321 321 321 322 323 323 324 325 323 322 321 322 323 324 324 323 322 322 317 301 297 294 292 295 297 298 298 297 296 299 301 299 296 295 294 293 292 293 293 292 287 291 292 291 287 286 284 284 286 285 283 284 284 284 283 286 284 286 285 284 286 285 286 284 284 285 286 285 286 289 289 290 288 287 287 287 286 287 287 286 286
319 318 318 318 319 319 320 321 320 321 322 323 324 324 323 322 321 321 322 323 324 323 321 319 318 307 300 295 294 290 298 299 297 298 298 298 301 298 297 296 295 296 297 296 294 292 294 294 294 293 292 287 288 286 285 285 286 286 287 286 285 284 285 285 284 285 285 287 284 285 284 283 284 285 286 290 288 287 288 288 287 286 285 284 286 287 287 286
318 318 318 319 319 319 320 320 320 320 320 323 323 324 323 321 321 321 321 322 322 323 321 319 315 298 296 299 294 293 298 298 296 296 299 301 298 297 297 297 297 296 298 294 294 293 293 292 292 290 289 290 287 287 288 286 286 284 286 283 283 281 285 285 286 285 285 286 285 285 285 285 284 284 290 291 287 288 287 287 286 287 286 284 285 286 285 286
318 318 318 318 318 319 319 319 320 320 322 322 323 322 321 320 321 321 322 319 321 320 320 319 307 301 299 296 292 298 296 295 296 300 300 299 299 300 299 299 300 299 298 296 292 294 293 292 297 293 288 287 285 284 288 288 286 286 284 281 282 279 279 285 285 284 286 287 283 286 278 279 281 288 290 288 286 287 287 287 288 287 285 285 284 285 285 285
317 317 317 318 318 319 319 319 320 320 320 321 322 320 320 320 320 320 321 319 321 320 318 315 300 295 297 290 298 298 299 295 300 300 297 297 302 299 301 300 300 299 300 298 296 297 298 298 297 292 290 288 287 291 289 284 284 283 283 280 275 278 277 283 284 284 286 285 285 287 277 281 285 285 286 286 285 286 287 288 287 286 286 285 285 285 285 285
316 317 319 319 318 318 319 319 320 320 319 319 320 320 319 318 320 321 321 318 319 321 319 314 302 300 293 294 296 299 312 298 301 295 296 297 298 298 298 298 298 297 298 298 296 297 297 298 297 290 289 289 290 286 281 280 279 279 279 276 274 276 277 281 282 284 284 285 285 286 275 282 285 286 288 285 284 285 286 288 287 286 286 286 285 285 285 285
317 317 319 318 317 317 318 318 318 319 319 319 319 316 320 320 321 321 320 317 316 317 304 301 298 297 294 292 298 306 295 295 297 296 295 297 296 296 296 295 296 298 298 296 296 298 296 298 291 288 290 289 285 281 279 280 280 276 278 273 275 276 276 281 285 282 284 285 286 285 282 282 284 285 283 285 285 284 286 286 286 286 286 286 286 286 286 285
316 317 318 317 318 318 318 318 317 318 319 319 317 319 319 319 318 319 318 312 305 305 303 299 294 296 292 296 300 294 292 294 295 296 296 297 295 295 294 294 294 294 292 295 297 296 294 292 287 289 285 284 279 278 276 274 271 276 276 276 275 277 278 277 281 283 283 285 283 285 282 283 286 286 287 286 286 284 285 286 287 287 287 286 287 285 285 285
316 317 318 317 317 317 318 318 318 318 318 318 313 314 309 314 316 312 307 305 301 300 297 299 294 294 293 296 292 294 294 291 296 295 296 298 297 298 296 295 292 293 290 293 293 293 290 287 287 284 281 282 281 275 274 272 276 277 279 276 278 277 277 278 278 284 286 284 284 282 281 284 286 288 288 289 286 285 286 287 287 287 287 287 287 286 285 285
316 316 317 317 317 318 317 317 318 318 318 318 318 318 315 312 302 302 299 299 298 294 289 293 291 286 286 293 292 293 295 296 295 298 299 298 297 295 295 292 291 291 288 287 290 288 287 286 285 282 281 280 280 279 278 278 278 280 277 278 277 278 276 278 280 280 283 283 281 281 283 285 287 288 289 286 284 285 286 286 286 286 286 286 286 287 286 286
315 316 316 316 317 317 316 318 317 318 319 311 300 301 296 294 295 292 295 297 292 293 293 292 290 292 292 292 294 297 297 296 295 296 298 297 298 295 292 291 291 291 284 285 285 286 285 282 278 277 278 279 280 280 281 281 280 279 276 276 276 276 278 279 280 281 281 282 281 282 281 282 284 286 287 287 284 283 284 284 286 287 287 287 287 287 287 286
316 316 315 316 316 317 317 317 318 317 315 299 298 297 295 289 287 287 286 291 290 290 292 293 294 294 294 293 293 294 294 294 296 295 297 298 294 294 292 289 288 288 284 282 285 286 287 283 278 280 280 282 282 280 280 280 279 280 276 278 276 277 277 282 284 282 281 282 278 278 279 282 284 286 287 285 283 285 285 285 285 286 286 287 287 288 288 287
315 316 315 316 316 316 317 317 316 314 311 298 299 296 294 290 295 294 292 289 293 291 292 292 291 293 293 292 294 292 292 291 296 296 297 300 295 291 290 288 285 285 284 283 283 280 283 281 281 282 282 280 279 279 279 280 278 277 280 276 275 277 278 280 281 279 281 283 280 278 280 283 285 286 287 284 284 284 284 285 286 285 286 286 287 287 288 286
314 314 316 316 317 317 318 317 314 312 298 303 297 295 297 298 295 293 293 291 289 292 292 292 294 290 293 293 293 294 290 289 289 293 295 297 291 291 285 286 285 282 285 283 284 279 281 282 283 281 280 281 280 279 280 280 278 277 276 278 276 277 276 275 279 279 282 280 278 278 279 283 285 283 282 282 282 283 283 284 285 285 287 287 288 289 289 288
314 314 315 316 316 317 318 315 310 301 295 296 295 295 295 292 292 295 290 286 287 290 294 292 292 290 291 293 295 293 291 290 289 291 296 292 291 289 287 283 281 281 283 282 282 282 282 284 281 280 280 281 282 279 279 279 280 278 278 275 274 277 278 279 278 279 276 278 279 277 278 278 276 280 281 282 281 282 283 283 284 285 285 286 286 286 287 288
314 314 315 315 316 316 315 312 299 294 293 294 293 295 292 292 292 294 293 285 286 289 293 291 290 293 295 296 293 296 290 290 291 291 291 293 290 289 286 285 282 284 282 282 282 282 282 283 281 282 279 280 280 281 280 277 280 274 275 280 282 280 279 278 278 278 276 277 279 279 275 271 275 278 280 283 280 283 282 283 287 287 286 285 286 288 289 288
314 314 315 315 316 313 316 301 297 295 296 296 296 295 292 291 294 293 287 278 278 286 291 289 296 292 296 293 291 287 290 287 292 293 295 294 295 291 287 285 285 285 283 281 281 282 284 283 282 282 280 280 278 280 282 280 276 275 279 278 279 279 278 278 277 277 270 274 278 278 276 270 277 280 282 278 278 282 284 281 284 286 287 286 287 289 289 289
314 314 314 315 314 316 299 295 294 294 299 296 295 292 291 293 292 300 296 274 275 286 287 293 295 293 297 291 289 291 285 287 292 291 292 293 294 294 288 283 284 284 281 282 279 283 285 283 281 280 280 279 278 280 282 276 273 279 280 276 275 277 277 276 274 275 276 277 280 278 274 272 272 280 278 276 279 282 282 283 283 284 285 286 288 289 289 290
313 314 314 313 313 309 298 297 294 296 293 296 294 290 292 293 295 293 281 271 274 289 286 288 294 294 294 291 290 289 289 287 286 290 291 292 293 291 287 284 283 283 283 279 275 283 284 284 283 282 278 280 281 282 282 280 282 281 278 278 279 279 278 276 276 275 274 275 276 276 280 275 268 277 276 277 281 281 281 281 282 282 283 285 287 288 289 290
314 314 314 314 311 306 298 296 293 294 296 294 293 294 294 290 291 289 277 272 284 284 296 291 299 292 287 290 287 284 286 287 287 289 290 291 293 291 285 285 281 283 282 283 278 281 283 284 284 283 280 282 282 282 279 281 281 281 278 275 275 277 276 276 274 278 270 274 268 274 278 272 274 276 279 276 280 279 280 281 283 283 284 284 285 287 288 288
313 312 315 313 303 302 294 291 294 294 292 291 293 294 292 293 289 281 276 272 286 281 288 289 290 286 283 284 284 285 287 284 285 286 288 286 290 289 287 285 282 281 282 280 281 280 283 285 284 283 283 284 282 281 278 281 282 279 280 281 277 275 275 275 273 269 270 268 268 274 276 277 271 277 279 280 282 280 279 280 282 282 282 283 284 285 286 286
311 311 311 309 297 296 290 290 293 292 291 294 294 291 291 287 275 266 269 276 286 285 285 285 284 283 281 283 282 284 283 281 285 283 284 286 287 284 286 287 284 280 276 279 280 281 283 283 284 285 285 283 283 282 281 280 281 281 278 280 278 278 274 276 269 267 269 265 268 273 275 276 269 274 277 278 279 277 281 283 284 284 284 285 285 286 286 284
311 308 308 301 297 293 294 294 293 291 294 295 292 290 288 284 280 275 277 287 281 282 282 282 282 281 281 280 280 281 282 281 282 281 280 279 279 281 281 278 275 275 272 275 278 279 284 285 283 284 285 285 281 283 281 280 280 279 277 279 274 267 268 268 264 270 262 266 275 273 273 274 275 280 283 283 284 284 280 283 285 284 284 285 285 287 286 283
309 308 307 301 296 291 291 290 293 296 296 294 289 285 281 273 274 272 272 276 281 283 283 283 282 281 280 280 281 280 281 283 282 280 280 279 278 279 279 280 279 279 277 278 278 276 277 278 282 284 283 283 283 281 279 277 278 281 278 270 266 263 258 261 258 262 263 272 273 276 272 275 277 279 282 283 286 286 284 282 282 283 285 286 287 286 285 286
308 305 299 297 297 294 295 293 293 296 293 292 286 288 281 277 275 285 275 276 282 280 282 281 280 280 280 283 282 280 282 282 281 281 280 279 276 277 277 278 280 279 274 277 277 275 269 273 281 283 284 282 280 281 283 282 279 279 277 279 271 262 268 264 260 267 268 271 274 272 270 268 270 280 280 281 283 281 279 280 280 281 282 283 283 283 284 285
306 298 295 291 293 294 294 291 293 295 289 290 285 279 276 275 272 274 274 275 278 279 283 281 281 281 280 278 279 279 281 280 280 278 279 277 278 276 280 279 280 278 275 277 271 272 279 275 278 280 282 281 282 281 279 279 279 279 277 276 275 272 270 271 261 264 262 266 271 266 271 270 279 281 285 282 281 282 282 282 282 283 283 282 283 285 286 287
305 296 293 292 295 294 290 293 290 290 288 287 284 278 276 273 277 278 280 282 281 283 282 281 278 279 277 274 276 275 282 279 279 278 277 277 277 279 280 279 280 281 278 275 272 274 273 277 281 281 281 280 281 281 281 281 276 280 280 274 278 276 272 266 269 270 270 262 269 262 273 277 278 280 279 278 280 283 281 280 280 282 283 281 284 286 287 287
292 293 298 293 294 295 290 288 291 290 292 286 282 276 276 278 280 278 284 281 281 280 279 279 277 278 276 274 275 272 277 280 278 278 279 279 279 278 280 280 280 279 280 276 272 273 274 275 276 281 283 282 280 280 281 279 280 275 274 276 278 277 275 274 268 262 256 262 269 269 270 275 274 276 279 281 279 282 281 281 281 281 281 282 286 287 287 288
294 293 292 293 296 291 288 289 290 290 287 285 277 286 279 281 281 281 280 279 282 279 275 279 277 280 273 275 278 275 276 279 279 275 279 279 280 279 278 279 281 281 279 277 278 276 275 271 276 280 280 283 279 282 281 282 281 284 280 277 280 269 273 270 266 265 265 263 266 268 265 269 271 277 277 278 278 281 282 281 280 282 283 284 286 286 287 287
289 290 291 293 293 293 291 289 290 290 287 284 273 283 282 280 281 280 280 280 281 282 280 277 278 277 275 272 275 273 272 277 275 278 275 279 277 282 282 280 281 279 278 279 277 278 277 271 274 278 281 281 280 281 274 278 282 280 281 280 277 275 264 268 271 264 267 264 265 269 264 276 273 273 274 281 281 281 282 280 282 282 283 285 286 286 286 287
295 295 288 292 293 290 291 291 292 288 285 282 274 276 281 282 281 280 278 281 282 280 279 280 279 276 278 275 275 278 274 274 277 277 279 278 281 283 282 282 280 280 279 279 281 279 277 275 266 275 277 279 276 279 275 277 273 277 276 272 277 270 271 271 268 269 271 260 261 260 266 272 280 278 278 283 284 284 282 283 283 284 284 285 285 286 286 286
285 287 290 293 293 289 293 294 286 279 277 278 278 280 280 281 281 281 280 278 282 281 278 278 277 279 278 275 277 278 275 275 277 276 277 278 279 277 279 280 280 281 280 281 281 279 272 276 271 273 275 276 276 276 279 276 278 278 277 272 276 267 272 269 272 267 265 268 267 258 271 272 284 282 283 284 284 282 281 281 283 284 285 286 287 286 285 286
287 282 291 294 291 295 292 287 277 276 278 275 279 282 284 287 280 280 280 279 280 280 279 277 277 277 277 280 279 275 279 275 277 275 276 277 281 281 279 273 278 278 282 280 279 279 279 274 274 272 276 278 276 279 276 278 278 277 279 277 273 269 268 265 265 265 265 266 265 264 263 274 282 280 281 281 281 281 281 280 282 285 285 286 287 286 285 285
284 288 294 293 292 294 290 279 279 278 276 280 282 281 279 279 278 278 281 282 282 280 280 282 282 281 279 282 280 278 279 277 277 279 278 278 277 278 277 278 275 278 278 277 280 279 284 272 269 273 275 272 274 276 277 275 279 279 278 274 273 271 272 275 270 263 268 264 267 262 265 275 284 279 279 279 279 279 280 280 282 284 285 286 285 285 285 285
283 289 293 295 292 293 285 281 277 277 276 282 281 282 281 282 281 281 281 280 280 279 282 281 282 282 281 279 279 281 280 277 279 281 279 276 280 279 279 280 277 281 281 280 277 279 275 273 273 266 267 272 270 271 275 278 278 276 272 272 270 269 266 263 264 262 271 269 272 268 269 273 282 279 281 279 280 282 283 284 282 283 286 286 286 286 285 285
285 285 286 289 294 292 284 278 277 274 277 277 278 278 279 282 281 282 281 282 280 278 278 280 281 281 280 280 279 280 280 279 276 276 276 273 276 275 273 274 272 279 279 281 283 280 274 272 271 269 267 269 271 270 270 269 270 274 275 273 271 272 269 271 271 267 268 268 272 265 268 280 285 285 285 283 281 283 285 284 284 282 283 285 286 286 286 285
283 284 285 283 288 285 282 279 279 277 273 275 277 278 278 279 282 279 280 282 280 280 279 281 280 280 280 282 280 280 280 280 278 274 273 276 273 277 276 274 274 277 280 280 279 276 270 271 274 273 271 273 276 278 276 278 274 272 270 271 271 270 269 269 268 266 272 266 270 275 277 280 282 284 285 286 285 285 285 286 286 287 286 285 284 284 285 285
282 281 279 278 283 284 279 280 278 277 277 278 278 278 276 277 279 279 281 283 281 281 282 281 281 282 280 281 278 280 279 280 279 275 273 272 271 273 276 278 276 279 281 280 276 268 266 271 274 275 274 278 280 279 277 278 276 278 274 275 270 271 271 274 274 273 272 268 273 278 278 277 280 283 284 284 286 286 287 287 287 287 287 286 286 285 286 285
282 280 281 283 284 282 280 282 279 279 279 279 277 279 276 277 279 277 280 282 281 279 283 281 281 282 280 282 280 276 277 278 277 275 273 270 269 274 273 277 277 279 279 276 273 274 270 269 267 270 272 276 277 277 278 277 277 277 277 276 273 271 270 274 275 277 274 274 274 280 276 274 280 283 285 285 286 286 286 286 287 286 286 285 284 284 284 285
281 280 282 283 282 278 280 282 280 279 280 278 277 279 276 277 278 281 280 282 280 280 282 277 281 280 279 279 281 277 277 275 274 272 272 273 271 271 273 274 278 277 276 274 274 266 271 269 265 267 272 275 277 279 278 276 274 274 275 276 277 273 273 276 277 277 277 277 280 280 280 279 282 283 285 286 287 286 287 286 285 285 285 286 285 284 284 285
285 285 283 280 278 275 275 276 279 279 281 282 278 281 279 279 280 280 281 281 278 280 282 282 281 278 278 279 280 279 277 279 278 276 274 274 273 270 268 274 275 276 274 274 271 272 273 270 275 270 269 274 274 273 271 274 272 272 277 277 276 276 275 275 275 275 274 276 278 279 278 278 283 286 285 286 287 286 284 283 284 285 285 285 284 284 285 285
283 282 282 280 276 279 277 273 278 278 275 279 279 281 282 279 281 280 281 282 282 281 281 283 281 281 278 279 280 279 280 279 278 279 278 276 277 276 276 277 276 272 273 272 270 270 271 269 263 262 269 273 271 272 275 273 273 272 275 277 275 273 269 272 271 275 274 274 275 274 272 276 283 284 282 282 282 283 284 285 285 286 285 284 284 285 285 286
279 281 279 279 280 280 278 274 275 276 276 280 283 282 282 283 280 279 281 279 277 282 281 281 280 283 279 280 278 281 280 279 279 279 279 276 277 279 278 278 276 273 268 270 266 271 267 266 268 263 269 268 271 271 275 274 272 270 270 274 275 274 273 273 275 275 278 278 274 270 277 284 283 282 282 286 287 286 285 285 284 286 287 285 285 285 286 286
Wind_Speed
6 6 6 6 7 7 7 8 8 8 8 8 9 9 9 9 9 9 8 10 9 11 11 11 7 6 4 5 5 8 6 5 8 11 16 1 2 9 11 11 9 8 4 3 5 3 4 6 7 9 6 8 5 4 1 5 3 4 5 6 5 2 3 6 7 8 2 8 5 4 3 6 3 0 0 0 1 3 2 2 4 2 4 4 2 2 1 2
5 6 6 6 6 7 7 7 7 8 8 8 8 9 9 8 9 9 9 8 9 11 11 11 5 5 3 3 4 4 5 2 6 14 6 3 10 12 11 9 6 5 0 6 5 4 6 2 4 7 7 5 4 2 1 2 5 7 3 5 7 4 1 5 3 4 6 4 5 5 2 2 4 5 1 1 1 2 1 3 1 4 8 6 2 3 4 4
5 5 5 6 6 7 7 7 7 7 8 8 9 9 9 8 9 9 9 9 10 10 11 10 9 7 8 6 3 2 2 4 11 13 9 12 15 13 11 7 5 4 2 4 1 5 3 3 1 5 6 5 9 2 5 4 3 1 5 6 0 4 0 2 3 6 1 7 7 4 3 0 2 1 0 1 3 1 4 3 2 4 6 6 3 3 2 4
5 5 6 6 6 7 7 7 8 8 8 8 9 9 9 9 9 9 8 9 9 9 10 10 3 3 4 5 4 2 4 3 7 5 5 13 17 12 9 6 2 4 7 8 4 6 5 6 10 9 3 10 5 4 8 7 4 2 7 2 3 5 4 1 2 2 1 7 6 5 1 2 1 2 0 1 2 4 6 6 6 6 7 6 4 2 1 4
5 6 6 6 6 7 7 7 8 8 8 9 9 9 9 9 9 9 10 9 8 6 9 10 7 5 5 5 5 1 5 5 3 4 6 16 15 12 7 5 3 2 4 8 7 6 9 7 5 7 7 2 6 4 3 4 3 4 2 1 1 2 3 1 1 4 5 5 6 3 6 5 1 1 1 5 5 6 6 7 8 7 6 4 4 0 0 2
6 6 6 6 7 7 7 8 8 8 9 9 9 9 10 10 10 10 10 7 5 4 8 8 8 8 6 3 3 4 4 3 3 7 12 17 12 9 6 4 6 4 5 7 3 4 4 8 9 5 4 7 6 8 5 1 1 7 2 2 1 2 4 1 3 4 7 5 6 5 3 3 2 1 1 6 8 5 5 2 4 7 6 3 0 2 2 2
6 6 6 7 7 7 7 7 8 8 9 9 9 9 10 9 10 9 8 7 8 8 8 8 6 4 3 3 3 15 10 1 1 8 15 15 11 7 5 6 6 3 5 4 6 4 4 8 10 3 5 5 4 7 2 4 5 8 3 1 5 4 5 1 3 5 2 9 7 3 1 3 2 4 1 3 9 10 7 3 3 3 2 1 2 4 5 5
6 6 6 6 6 7 7 7 8 8 8 8 9 10 10 9 9 8 7 8 8 8 8 8 5 2 1 1 4 8 10 6 9 8 15 12 9 7 4 5 5 4 12 6 2 6 4 7 12 4 9 6 1 4 2 9 9 6 4 0 0 4 2 2 3 3 3 2 1 2 3 3 4 2 0 7 11 9 10 2 3 2 1 1 3 3 4 4
5 5 5 5 6 6 7 7 7 7 8 8 9 9 8 8 8 8 7 7 7 6 8 7 6 2 3 3 3 11 7 5 4 9 9 9 8 8 7 3 7 10 4 4 4 4 7 1 3 3 5 4 0 5 6 4 4 3 1 1 3 3 2 2 4 3 2 1 1 2 4 3 2 3 5 13 9 9 3 3 3 1 0 2 3 4 5 5
3 4 4 5 5 5 5 6 6 7 8 8 8 7 6 8 8 8 7 5 5 6 6 7 2 6 5 2 2 14 4 7 7 10 9 7 8 12 13 4 4 5 5 5 7 2 1 6 6 7 16 8 2 5 2 6 3 2 5 5 6 1 2 4 2 1 1 0 0 3 4 2 2 2 8 4 11 5 1 5 2 2 3 3 4 4 4 6
3 3 4 4 4 4 5 5 5 6 7 6 5 6 7 8 8 7 6 5 4 4 4 5 4 7 8 1 13 7 3 5 5 7 11 6 20 12 8 7 3 8 15 12 11 5 8 13 10 7 6 2 5 7 7 1 4 6 7 6 8 4 4 2 3 0 2 0 1 0 3 2 2 1 10 12 2 3 6 6 4 4 5 4 5 5 5 5
4 4 4 4 4 4 4 5 5 6 7 7 7 7 7 8 7 6 5 5 2 1 3 4 5 6 2 19 11 3 4 1 3 5 9 13 10 7 7 8 9 4 12 7 5 4 2 6 5 2 5 1 8 3 6 0 4 1 3 5 4 5 2 1 1 1 1 1 2 1 3 7 3 6 16 12 0 2 5 6 6 6 6 4 4 5 4 7
6 5 4 4 4 4 4 5 6 7 7 7 7 7 7 7 6 5 5 5 4 6 6 3 3 4 1 17 3 4 3 2 4 10 9 6 6 8 9 10 13 12 8 10 3 2 1 3 13 18 2 6 4 0 4 6 1 3 8 4 4 4 3 3 0 1 1 1 2 0 4 7 8 17 16 1 2 1 3 6 7 6 5 5 5 6 5 4
6 4 4 3 4 6 7 6 6 7 7 7 6 7 7 6 5 5 4 2 4 5 6 11 5 6 9 4 1 3 4 0 6 12 9 6 12 6 13 10 10 8 7 13 8 6 10 9 20 12 4 6 5 0 7 3 6 5 2 6 2 1 2 2 1 0 2 1 0 1 2 9 9 9 11 6 4 5 8 9 7 6 6 6 5 5 7 7
5 4 5 7 7 6 6 5 5 6 6 6 6 5 5 6 4 1 1 2 7 5 4 3 7 2 8 1 5 6 1 1 10 5 4 5 6 7 7 6 10 8 6 8 4 4 2 7 13 9 4 3 4 4 3 3 4 3 3 1 2 1 4 4 1 3 4 1 2 2 3 10 11 13 8 2 4 5 8 9 8 7 7 7 5 6 7 8
6 6 7 6 6 6 5 5 4 4 5 5 5 2 4 2 4 6 8 3 5 6 1 5 8 8 10 4 1 5 5 5 5 4 3 5 4 7 1 3 3 7 8 5 4 3 7 12 12 2 4 3 9 5 5 5 3 4 2 1 1 0 4 5 1 1 3 1 1 3 6 7 10 5 2 1 3 4 8 9 8 9 8 8 7 6 6 6
7 7 6 5 5 4 5 4 4 4 4 5 4 6 6 5 5 6 5 6 7 3 7 1 0 2 6 4 1 4 3 2 4 3 6 4 3 1 3 5 5 5 6 5 9 7 8 10 2 3 6 7 1 3 7 6 2 1 2 1 1 1 1 1 4 0 0 2 2 1 3 10 12 9 10 5 1 3 7 11 10 9 8 7 6 5 6 7
7 7 7 5 4 4 4 4 4 4 4 4 3 12 13 13 9 8 10 7 3 6 3 3 3 4 5 6 3 2 0 5 6 5 3 0 5 8 8 5 2 3 5 2 6 8 5 4 5 5 3 5 7 4 3 1 3 1 0 1 1 1 3 4 2 0 1 1 3 1 5 17 19 16 13 11 3 6 11 11 10 9 8 7 7 7 6 8
7 8 8 7 7 5 4 5 4 5 4 3 2 4 3 5 5 8 8 6 4 5 5 8 8 4 3 2 4 5 2 3 2 4 5 5 3 4 4 3 5 3 1 5 4 5 5 4 5 8 5 7 4 3 4 2 3 1 4 1 1 0 2 2 3 2 1 2 3 5 8 12 15 15 16 7 4 6 11 7 8 9 8 7 7 8 7 8
7 7 8 8 7 6 6 5 5 4 2 3 1 1 5 5 8 5 9 9 7 4 5 2 1 1 2 5 4 5 3 3 4 7 2 1 2 2 7 3 4 8 5 2 5 3 0 9 6 1 3 4 4 3 2 1 4 4 3 2 1 1 6 3 2 2 1 2 7 7 7 10 16 17 17 11 2 5 7 9 9 9 8 8 8 9 9 9
7 8 7 6 6 5 5 5 4 3 5 2 2 3 0 5 5 3 3 2 1 0 5 1 2 4 2 1 2 4 0 3 4 7 6 1 2 3 5 4 5 8 5 1 1 3 8 9 4 3 4 4 2 2 4 5 3 1 3 1 3 2 3 1 1 2 3 1 3 1 4 12 15 16 15 6 2 9 8 8 9 10 8 8 9 11 11 8
8 8 8 7 6 4 2 2 3 5 5 3 1 1 1 2 0 1 6 5 4 4 6 2 1 3 2 2 2 2 3 5 11 12 4 4 5 5 5 8 5 5 5 4 2 6 8 6 1 3 1 5 4 4 2 2 3 2 1 1 1 3 5 8 1 2 1 1 9 2 6 15 16 12 11 5 6 6 3 4 6 5 7 8 8 10 10 5
9 8 7 7 6 5 3 3 4 3 2 2 1 4 1 1 3 1 3 7 4 1 1 2 7 5 4 3 1 4 7 5 2 8 7 5 3 6 1 7 7 2 4 4 2 1 6 3 1 1 5 4 4 4 5 5 4 3 2 0 2 2 2 3 1 3 0 1 4 3 7 13 12 7 9 6 4 5 5 6 9 6 9 10 10 9 8 9
9 8 7 5 5 3 2 3 2 6 5 4 6 3 0 1 1 0 2 1 4 3 2 0 3 2 3 3 3 5 4 1 2 10 6 4 2 2 5 3 5 4 5 6 8 8 5 0 1 6 2 3 5 2 2 0 2 1 1 1 1 1 2 4 3 3 2 1 0 6 5 8 3 5 5 2 3 4 4 5 6 6 8 7 6 7 9 12
9 8 7 6 4 5 4 5 6 1 1 2 2 1 2 1 1 1 2 1 5 2 3 1 3 1 1 0 4 0 0 1 1 3 3 3 0 2 1 1 2 1 3 1 1 5 2 0 3 0 3 5 4 5 1 3 0 2 4 3 2 2 3 4 4 4 5 2 1 4 6 4 3 6 9 9 7 8 3 6 10 8 5 4 7 12 9 8
10 8 7 6 4 2 5 3 1 2 2 2 1 1 2 0 0 0 8 4 2 4 3 4 1 2 2 3 5 0 1 3 1 2 1 1 2 2 1 2 1 2 1 2 2 2 2 1 3 1 4 4 4 1 0 1 1 1 0 3 4 2 1 1 3 2 3 0 2 2 1 8 6 8 8 4 6 10 10 5 10 9 8 5 9 10 10 10
10 8 7 6 3 4 3 2 1 2 2 1 2 1 2 0 0 0 1 5 5 1 2 2 1 1 2 1 1 0 1 1 3 2 2 3 1 1 2 3 2 2 1 1 2 1 0 2 5 6 2 2 2 3 2 5 5 1 0 4 3 2 1 2 2 3 2 2 3 3 2 2 8 11 4 3 5 9 10 11 8 7 7 8 9 10 10 11
10 8 6 7 4 1 1 6 3 2 2 0 1 2 1 1 1 2 5 2 1 2 2 3 1 2 5 5 6 4 1 4 1 1 3 5 1 3 7 1 2 1 0 2 1 1 2 2 1 2 3 1 0 2 2 4 1 1 2 3 2 3 3 3 1 1 0 1 6 1 0 1 5 10 3 2 4 6 8 9 8 7 7 8 10 11 11 11
10 8 5 4 8 11 8 4 5 2 1 1 1 0 1 3 4 5 3 3 1 2 2 1 1 2 9 3 5 2 1 4 1 3 7 1 5 1 3 0 4 2 0 1 3 1 1 1 2 3 2 1 3 1 4 6 3 0 3 5 4 4 3 1 1 1 2 2 6 3 1 1 9 7 8 1 2 7 8 8 8 7 7 7 7 10 10 8
11 9 5 3 2 3 3 3 4 1 1 2 1 1 2 2 3 2 2 2 1 0 1 3 3 5 4 2 2 8 7 4 1 6 4 2 8 7 3 2 2 2 1 4 4 5 0 2 4 3 2 1 1 0 1 0 1 4 3 1 1 4 2 2 6 2 2 1 5 2 1 1 5 7 7 1 3 3 5 6 6 6 6 8 9 10 9 7
11 10 7 4 2 1 2 3 1 1 1 1 0 2 2 8 2 4 1 1 1 2 1 4 1 5 6 6 3 4 2 2 8 4 3 7 8 5 2 1 4 3 4 6 0 4 1 1 0 1 2 2 1 1 2 1 1 3 1 0 1 1 4 1 3 3 1 5 4 2 1 0 2 9 8 9 7 4 6 8 9 9 8 8 6 6 6 5
8 13 13 10 1 1 1 5 2 2 1 1 2 4 3 3 6 3 2 4 0 3 2 2 1 1 3 1 4 5 4 5 3 6 5 3 4 8 8 3 3 2 2 2 2 4 1 1 1 3 2 1 0 1 1 1 3 4 3 8 6 5 7 2 6 3 1 3 1 0 0 3 9 12 10 12 12 10 8 9 10 7 8 8 8 9 5 4
6 8 14 8 1 4 2 1 3 2 2 2 4 4 2 4 1 2 2 3 1 1 0 2 2 2 0 1 3 3 3 3 3 3 1 1 4 2 1 1 1 1 0 1 2 7 3 2 2 1 1 2 0 2 6 2 5 7 5 2 3 3 3 1 5 2 4 6 2 0 1 4 6 9 12 15 15 11 7 8 8 7 8 9 9 7 9 10
9 4 11 3 7 3 3 2 2 3 1 2 2 4 6 3 1 1 0 1 1 2 2 0 2 0 4 2 1 3 1 0 2 2 2 1 5 2 2 1 1 2 1 1 3 0 3 3 1 2 0 2 2 2 2 1 1 1 1 0 3 5 0 3 2 2 5 8 6 4 1 7 2 5 1 10 9 6 4 5 6 7 9 8 8 9 11 10
8 9 7 1 4 3 2 1 2 3 3 5 10 5 2 1 1 2 1 2 1 1 0 0 1 1 2 2 3 1 1 1 2 2 6 3 1 1 1 3 4 2 0 1 1 1 1 6 5 2 1 1 3 0 1 3 3 0 1 2 4 1 5 2 3 2 3 5 9 1 6 4 5 7 14 4 7 8 4 6 4 9 6 4 6 8 9 8
2 2 3 3 3 2 0 0 1 1 2 7 7 6 2 2 0 1 0 0 1 0 1 1 4 2 1 2 2 3 3 0 3 2 2 3 1 1 0 1 0 0 0 1 1 0 3 1 2 5 3 4 0 1 1 1 1 1 1 1 1 2 4 2 2 1 1 3 8 1 10 6 7 9 6 7 5 6 4 4 4 6 6 4 7 8 8 8
2 3 6 3 3 3 1 1 1 4 8 8 5 1 1 0 1 1 2 0 0 0 2 0 3 1 0 1 1 3 1 2 1 1 1 0 0 3 0 1 3 0 1 2 1 3 1 9 3 2 0 1 1 1 2 3 2 4 1 3 1 1 2 3 2 3 4 1 8 1 5 12 8 7 5 8 4 7 7 7 7 8 5 6 8 7 8 9
1 2 2 3 4 2 1 2 2 7 7 8 5 4 0 1 0 0 0 1 0 1 2 1 0 4 1 0 2 2 4 1 5 2 0 0 0 2 1 0 0 2 0 1 1 1 2 4 2 1 1 3 2 0 2 0 0 1 1 3 0 1 1 3 2 3 4 5 7 6 5 8 6 9 5 6 4 7 8 7 6 9 7 7 7 8 9 9
3 2 2 3 3 2 0 1 7 6 5 10 0 3 1 0 0 0 0 1 1 0 1 0 0 1 2 0 2 0 2 2 1 1 1 1 1 2 0 3 0 1 0 1 1 1 1 1 6 1 1 2 1 1 3 1 3 2 1 1 0 3 2 1 2 2 5 6 5 9 4 9 5 7 4 8 7 7 8 6 6 8 9 8 8 8 8 9
0 1 2 1 6 2 2 3 8 10 9 6 2 1 1 0 0 0 0 0 0 1 0 0 0 0 0 3 1 1 1 0 0 1 0 1 0 0 0 2 1 0 1 0 1 0 0 1 2 2 3 2 2 2 4 8 3 1 1 1 1 1 2 3 1 3 4 3 2 2 9 8 11 8 5 10 10 9 6 7 7 8 8 8 8 9 9 8
1 3 1 1 5 0 2 14 14 8 7 0 1 2 0 0 1 0 2 3 0 1 1 2 3 0 1 1 1 0 1 0 0 0 1 1 3 1 1 1 1 1 0 1 1 0 1 0 4 6 7 2 6 0 2 3 4 6 8 6 8 4 1 0 8 2 1 2 5 2 12 7 18 4 9 9 9 6 6 6 8 9 10 9 10 9 8 9
2 3 3 2 1 3 3 11 5 0 6 4 1 1 0 1 1 0 1 1 1 0 1 2 0 1 2 1 1 1 1 1 0 0 2 1 1 0 1 4 1 0 1 1 1 1 1 2 1 7 7 7 3 0 2 0 2 1 3 3 4 3 5 3 2 3 1 3 4 2 1 15 7 5 6 7 5 5 6 4 8 9 9 10 11 9 9 8
5 1 1 5 1 1 10 7 1 6 4 0 1 1 1 1 2 1 1 1 0 1 1 0 1 0 1 0 0 0 2 1 4 0 1 1 2 1 2 4 4 3 2 1 1 1 4 0 2 7 7 4 1 2 1 1 0 1 0 3 3 4 6 8 5 5 4 0 1 2 3 14 11 4 4 4 4 4 6 5 9 11 9 11 11 10 10 9
2 1 3 1 4 5 7 3 2 2 1 1 1 0 0 0 0 2 0 1 0 1 0 0 1 0 0 0 1 0 1 1 1 0 1 0 2 3 3 3 5 0 0 1 2 1 1 3 2 5 6 5 5 2 1 1 1 2 2 3 2 3 6 2 5 0 1 8 9 8 10 10 9 2 1 3 4 7 8 8 5 9 12 10 10 9 8 8
3 1 1 7 11 9 6 2 6 5 0 1 1 3 3 1 2 1 0 1 0 0 0 1 0 0 1 0 1 1 0 1 2 1 0 1 2 2 4 2 4 1 2 3 1 2 1 3 2 2 4 9 11 10 7 5 4 3 1 0 1 9 8 2 3 1 4 4 7 4 9 16 15 11 12 8 6 9 11 8 7 6 9 13 13 11 10 8
3 2 7 7 9 8 7 1 6 7 5 1 3 1 0 1 1 2 2 1 1 0 2 1 1 1 1 1 1 1 0 2 0 2 2 1 1 1 1 1 2 2 1 3 2 1 1 0 3 7 7 9 11 9 2 2 1 2 5 3 6 1 2 2 5 5 10 3 7 14 12 16 20 25 21 18 13 14 15 14 13 13 12 10 8 10 10 10
2 6 3 5 7 10 4 6 5 4 2 1 1 0 4 1 2 1 1 0 1 0 0 0 0 0 1 1 1 1 0 1 1 0 4 5 2 2 2 1 0 1 2 1 1 2 2 1 7 8 10 14 12 11 2 2 6 9 8 10 5 6 10 8 9 10 6 5 11 12 11 10 19 21 19 17 17 17 16 14 15 14 13 12 12 11 12 11
6 1 1 2 4 3 7 7 7 5 3 2 1 1 0 2 2 1 1 0 0 0 0 0 1 0 2 0 1 0 1 1 0 2 1 2 2 1 1 0 0 2 2 0 1 1 1 3 7 6 12 9 12 14 8 7 6 8 9 10 9 6 7 13 15 12 8 8 14 14 5 4 16 18 20 19 17 15 16 18 16 14 14 13 11 11 11 12
6 2 1 1 2 1 1 1 1 4 7 3 1 2 3 2 4 0 0 2 1 1 1 2 2 2 2 1 0 1 0 4 4 2 3 2 3 2 3 1 1 4 2 1 1 0 1 5 3 1 8 8 11 16 6 6 5 5 10 15 8 9 14 16 17 9 12 14 17 17 17 19 23 22 23 22 17 16 16 12 12 14 16 14 11 11 11 12
1 1 1 5 7 4 0 1 1 4 7 3 2 2 1 0 2 4 1 1 2 1 0 0 5 3 1 0 0 1 2 1 2 4 2 3 4 2 2 3 0 1 1 0 0 1 2 6 4 1 3 8 5 4 1 1 1 6 13 11 7 10 11 13 7 7 5 12 20 21 17 21 24 20 14 16 15 13 10 11 13 14 13 13 12 12 12 12
0 0 3 5 5 3 1 3 2 3 3 6 6 1 1 0 0 1 3 0 2 1 1 1 0 1 1 0 0 6 4 3 5 8 3 3 3 4 2 2 2 1 1 0 1 1 1 5 2 3 5 8 2 6 9 3 4 7 14 19 7 5 5 6 7 9 7 13 8 1 5 12 18 11 6 8 9 11 15 14 12 13 10 9 11 13 13 14
1 0 2 4 5 2 3 1 1 4 5 2 1 1 0 1 2 0 0 1 1 0 3 2 1 0 3 2 6 6 3 4 5 5 4 4 1 0 1 0 2 2 3 3 0 2 1 1 3 3 5 8 3 4 11 9 5 6 9 7 5 6 5 2 4 4 13 4 1 4 11 10 7 7 12 19 18 17 14 9 7 14 16 11 11 14 15 14
Wind_Direction
288 293 298 301 305 308 310 312 312 316 312 311 308 305 300 305 307 306 307 312 307 315 319 317 337 345 344 1 1 356 27 80 36 33 40 286 255 291 309 306 308 312 35 60 31 60 14 21 12 339 37 52 319 44 306 56 31 53 54 117 71 181 141 196 171 183 211 135 197 178 201 131 130 283 278 21 5 24 306 325 301 318 257 208 227 72 10 47
284 289 295 301 305 304 305 306 308 306 308 303 302 299 300 298 305 303 299 304 312 322 320 305 349 346 351 11 9 41 67 58 42 34 26 339 340 341 333 338 325 304 152 39 78 96 83 15 36 41 46 50 327 21 19 6 49 69 117 70 142 192 216 146 190 187 134 184 167 174 179 143 181 141 259 105 278 352 308 280 335 305 301 306 308 34 31 53
285 290 293 295 295 297 298 303 303 302 302 302 301 301 298 296 298 299 298 307 322 321 311 310 13 354 337 346 353 37 40 8 32 11 318 346 345 346 346 350 356 39 77 125 76 118 122 176 251 81 18 92 10 351 35 340 57 11 109 81 48 206 290 202 174 173 267 143 146 139 186 121 204 94 323 178 204 6 229 232 300 272 265 281 284 10 12 78
283 286 287 289 293 300 301 301 300 302 303 303 300 300 298 300 296 300 304 315 324 324 306 314 17 358 338 332 79 91 78 58 44 307 290 337 344 340 349 4 71 64 81 57 129 94 103 85 61 77 73 62 318 22 42 331 71 324 65 132 163 186 119 345 181 163 157 131 145 140 114 138 237 218 104 192 121 269 263 232 195 221 234 251 265 328 14 77
283 287 293 294 297 298 300 299 301 301 298 297 301 298 298 297 301 306 312 312 318 301 291 326 1 36 29 57 116 84 85 54 308 291 300 341 338 343 354 28 6 36 102 140 86 59 68 63 76 45 67 45 10 17 32 335 80 77 75 246 149 143 70 265 181 148 122 101 111 114 124 201 84 68 167 155 180 222 212 240 214 221 225 211 262 253 52 98
295 295 295 297 295 296 297 297 295 294 294 295 295 296 299 300 304 302 301 293 300 310 338 343 350 358 25 90 81 67 93 78 306 311 335 334 329 342 20 38 62 73 82 49 79 28 53 6 59 29 31 59 348 75 303 1 346 91 348 3 348 233 125 229 136 158 129 125 135 149 203 91 142 256 210 181 211 235 219 200 192 216 235 234 174 173 154 140
299 295 293 293 294 291 290 292 289 288 288 285 287 293 291 294 294 296 302 332 349 355 345 345 336 340 13 69 16 73 82 164 307 291 343 326 325 359 58 45 38 44 61 61 28 62 59 81 71 68 90 81 40 82 23 41 34 91 116 359 15 45 96 190 142 136 121 144 177 195 63 166 141 248 96 207 240 240 259 222 228 252 292 217 222 206 183 170
291 288 287 286 285 284 282 279 279 281 287 291 294 293 294 296 302 304 324 346 353 346 351 344 331 302 270 50 37 55 46 349 314 326 328 328 353 357 147 58 40 67 58 67 121 104 102 61 111 165 51 103 206 101 303 63 32 68 73 338 81 47 5 38 89 77 100 91 330 120 141 243 167 197 67 245 241 247 253 251 257 242 176 136 194 185 180 166
289 286 283 280 276 274 275 281 287 290 295 299 295 291 291 300 317 327 337 344 344 339 342 341 322 263 83 89 116 68 9 304 299 311 339 356 338 31 64 16 9 80 122 55 34 147 91 242 96 176 174 109 343 84 342 97 15 59 158 105 52 61 33 33 67 46 49 41 69 103 245 282 238 253 258 240 245 238 260 307 284 133 46 251 232 209 180 189
298 289 280 277 275 282 287 293 298 297 290 285 281 287 306 329 328 330 330 337 328 337 335 334 347 161 63 68 50 64 297 312 335 345 347 350 32 40 34 43 53 65 58 355 43 38 108 197 124 111 114 79 80 31 271 66 145 138 71 76 88 335 79 14 120 32 337 142 338 190 249 268 332 38 280 276 232 221 196 261 296 161 223 262 255 224 209 185
331 316 312 304 307 312 308 301 294 285 284 285 304 322 322 325 326 324 329 322 342 329 330 344 33 58 57 111 74 90 304 22 355 342 357 346 49 38 1 353 12 89 91 55 53 46 103 119 126 138 43 150 108 23 60 139 138 73 115 73 26 8 67 58 76 347 316 245 114 118 266 272 292 91 239 259 258 175 207 241 252 221 225 248 241 215 212 210
6 353 338 342 331 318 308 290 283 309 327 324 326 326 320 316 318 319 317 309 313 322 25 23 68 119 103 67 58 61 314 243 324 342 19 35 57 47 37 45 50 53 95 91 32 360 97 136 83 66 152 184 77 125 60 121 62 51 66 73 339 12 51 338 140 301 32 294 153 155 317 284 203 233 238 245 270 195 199 230 242 234 234 249 239 224 215 211
10 2 353 342 319 299 303 326 333 338 328 323 318 318 316 307 302 310 302 328 352 21 35 33 67 76 106 61 330 243 315 309 27 25 17 30 84 52 55 50 61 61 83 100 40 333 184 148 100 78 56 86 134 35 163 77 26 86 33 92 21 7 352 276 249 8 76 260 144 187 310 270 246 235 252 195 166 140 226 235 239 237 234 245 228 219 227 228
4 351 352 333 338 354 351 338 335 324 318 315 319 313 308 300 298 283 315 8 351 4 40 24 61 51 76 100 224 245 292 195 28 27 3 326 64 33 46 40 56 68 54 90 96 59 78 84 86 112 105 85 117 280 69 352 19 92 273 53 69 22 275 288 173 351 166 140 213 81 234 288 275 265 253 267 179 184 224 235 239 241 241 238 230 218 219 223
2 1 4 6 354 344 338 332 321 317 318 320 319 308 293 302 280 351 350 18 12 347 355 31 30 75 48 102 276 290 291 36 31 352 343 28 63 50 22 26 51 54 80 69 78 30 65 74 68 45 61 317 60 60 26 42 18 37 54 310 331 125 277 295 218 167 178 318 327 115 285 244 276 283 291 254 193 185 227 240 242 242 242 239 234 224 227 226
2 2 10 356 342 340 330 328 317 311 325 335 337 22 69 94 92 85 61 64 342 2 332 53 354 86 100 67 128 354 40 40 345 311 320 51 49 102 194 56 57 41 43 29 47 49 26 67 67 118 106 25 50 80 67 43 351 4 89 227 262 72 265 346 263 201 195 97 326 176 252 321 296 267 280 49 155 198 234 247 246 246 245 244 236 226 227 234
0 2 356 347 335 326 325 320 330 338 345 350 84 113 113 119 77 76 89 58 10 337 60 45 116 71 72 249 313 37 312 290 271 5 346 29 77 136 57 19 16 353 1 33 30 48 7 56 280 44 36 98 145 92 63 26 342 326 45 128 208 179 307 271 309 345 31 166 246 251 221 246 251 275 275 286 170 225 250 250 246 245 243 239 240 233 226 222
354 351 347 339 340 337 324 343 338 349 338 356 113 107 84 74 75 35 356 14 342 73 93 100 95 42 36 14 50 327 208 303 3 304 290 301 66 52 62 41 336 15 33 10 4 41 335 52 19 140 37 20 29 36 103 202 179 231 26 5 314 293 211 258 336 305 127 24 217 299 248 268 272 276 278 275 225 222 244 244 245 247 247 247 241 238 231 225
358 348 343 342 342 345 350 341 348 338 340 320 327 337 23 8 37 65 40 342 36 353 26 339 24 80 138 308 292 292 309 226 275 25 332 5 353 82 62 84 64 30 344 56 333 57 344 64 41 41 13 348 1 92 124 194 145 167 174 182 179 216 257 212 236 285 141 252 271 228 241 268 281 286 286 282 233 219 249 261 257 251 248 250 246 244 238 230
356 350 342 341 340 340 349 342 345 339 248 118 8 8 21 27 6 356 347 27 69 89 146 158 88 145 5 12 359 286 259 45 87 343 5 329 352 7 37 54 19 60 61 64 311 23 90 75 66 88 243 238 255 200 155 148 133 100 89 121 188 238 289 280 272 275 342 326 243 241 259 271 277 275 276 290 299 252 260 259 253 248 241 241 244 240 238 236
344 348 338 333 327 327 344 344 11 54 99 107 92 65 235 151 80 48 284 62 199 294 82 103 114 101 109 251 314 3 40 345 87 10 0 204 59 73 332 24 12 56 1 257 125 310 61 74 348 242 228 231 253 168 118 75 47 118 108 93 296 163 258 227 86 5 314 127 290 29 316 275 262 272 275 290 303 273 242 252 257 252 241 244 241 247 241 241
343 340 331 325 322 315 323 16 80 80 83 98 73 179 134 195 106 183 119 60 8 22 38 101 116 46 316 198 267 156 91 57 19 351 336 44 325 90 324 77 54 72 333 346 8 20 46 74 286 266 130 83 62 95 108 118 111 40 234 163 344 282 247 278 235 355 295 69 267 350 328 287 284 277 283 263 244 251 229 218 249 254 258 244 243 247 254 251
340 330 327 315 307 316 350 35 72 81 52 134 123 106 118 282 331 275 97 117 88 306 76 33 34 19 4 318 335 87 63 46 326 346 339 17 8 65 129 57 44 358 19 36 149 45 46 350 307 119 136 90 49 58 81 73 67 115 80 46 243 245 48 317 311 359 3 181 290 318 308 285 290 285 262 268 221 262 264 255 259 238 249 243 239 240 248 249
331 325 315 310 297 294 284 154 91 43 26 117 95 125 278 336 327 98 64 94 120 342 41 205 116 113 31 26 335 61 71 337 67 332 354 62 77 194 71 99 78 44 28 23 78 102 121 327 137 82 136 120 97 21 72 59 257 330 100 145 276 321 261 175 259 306 287 311 163 293 280 296 320 327 329 301 295 301 296 318 279 256 240 259 286 282 238 243
326 322 320 309 320 277 196 124 42 40 190 57 46 230 247 255 111 90 93 358 18 30 186 41 106 43 320 95 1 105 282 87 78 236 288 58 54 33 85 164 92 64 193 215 81 74 37 198 117 69 54 60 80 47 62 135 347 326 238 186 230 210 258 291 316 352 11 312 19 19 2 313 298 295 256 283 341 327 312 340 293 282 279 267 263 255 260 242
330 328 320 316 302 250 203 74 6 176 84 111 192 221 262 224 347 103 92 71 63 282 11 14 169 4 179 332 9 342 59 43 253 275 348 343 218 128 131 31 60 145 184 141 131 143 146 40 135 193 86 55 62 120 237 118 131 82 275 182 213 197 191 259 315 58 2 213 310 39 122 265 325 300 277 309 328 297 304 282 271 280 273 258 248 254 256 253
332 336 342 335 293 197 95 197 194 121 104 268 208 265 298 50 299 86 13 354 45 300 35 257 72 306 108 291 303 66 61 267 324 360 21 353 15 346 91 315 36 46 102 160 34 35 35 335 29 33 59 63 42 32 213 129 103 281 292 139 108 123 170 209 109 113 220 282 303 48 104 230 309 290 279 310 323 291 301 295 282 270 266 253 248 251 252 253
352 349 354 19 42 42 192 132 116 166 188 255 304 303 11 102 55 32 76 61 345 345 20 319 14 328 66 320 39 93 161 291 44 248 74 303 134 349 83 173 124 246 197 73 108 270 116 328 54 6 65 73 131 223 187 174 213 256 212 170 197 198 189 147 87 111 79 19 298 342 64 348 260 260 288 357 312 304 290 279 282 281 271 255 255 255 255 252
356 3 352 41 67 75 73 107 122 134 220 252 333 19 85 81 86 111 128 106 263 70 203 103 251 38 335 347 32 15 326 14 101 309 325 300 43 173 65 200 142 118 79 141 173 257 311 138 208 118 117 319 243 239 173 174 18 198 131 84 77 78 75 91 102 98 335 51 284 242 186 220 279 273 323 312 230 268 259 266 272 262 267 271 264 266 263 266
8 1 11 319 29 39 15 46 43 240 336 6 1 168 58 59 33 31 356 38 351 313 36 278 56 295 21 51 337 2 37 339 97 305 21 83 318 31 61 134 116 74 9 359 77 198 213 327 147 115 189 212 178 317 161 223 113 129 112 133 11 39 32 28 68 90 57 354 255 261 305 161 298 273 238 221 220 210 258 293 278 279 280 268 253 254 265 273
20 17 12 53 92 171 88 29 279 222 59 44 213 47 74 41 105 99 88 228 51 291 17 36 330 17 27 52 334 338 42 343 340 25 346 9 357 39 22 101 39 56 37 5 25 326 27 22 249 240 78 83 130 101 17 85 100 121 84 53 36 313 7 53 343 43 92 273 257 270 261 12 238 291 281 232 273 249 219 256 272 284 280 274 272 264 256 256
29 44 47 65 133 35 110 183 171 108 63 86 68 62 70 264 8 87 164 328 148 295 74 295 22 87 40 325 76 330 351 335 3 32 42 21 32 32 352 106 347 65 341 356 293 350 169 174 234 330 256 97 9 107 314 358 5 65 59 24 53 298 23 330 17 342 206 216 189 54 343 347 225 231 256 287 272 266 225 222 237 244 267 273 274 270 286 278
49 76 67 55 69 62 34 124 84 129 103 58 70 52 58 91 70 261 278 322 291 28 282 142 274 7 278 64 350 334 255 44 329 66 132 4 100 25 296 99 204 192 349 283 303 10 281 296 351 299 75 349 94 68 325 12 338 27 60 96 59 18 32 258 274 222 299 292 254 316 285 241 268 284 239 240 258 249 250 227 236 238 252 263 269 293 303 296
47 47 69 354 69 65 131 101 117 146 76 45 69 33 42 58 232 128 330 248 321 356 37 328 349 349 42 98 311 358 33 239 36 322 38 333 51 32 330 324 75 11 75 54 69 353 37 343 308 11 101 12 61 123 161 168 93 150 165 128 166 139 125 302 237 281 260 251 284 291 49 236 36 249 231 220 246 283 260 252 249 257 256 266 286 287 284 282
82 64 99 62 57 37 40 136 122 148 79 64 52 85 110 235 219 177 251 299 293 349 213 270 25 69 344 28 325 314 156 311 48 22 14 56 354 117 326 311 334 108 168 84 280 62 237 228 254 298 233 357 97 241 103 98 71 192 169 95 70 247 138 208 214 183 303 342 324 267 205 198 204 278 285 295 293 284 284 272 289 276 272 269 285 279 276 281
54 345 66 36 46 322 141 210 127 76 87 60 76 41 75 184 43 138 67 203 347 280 283 1 61 54 318 313 320 65 317 120 318 72 349 54 179 121 270 220 87 35 116 94 207 260 25 297 338 324 51 67 86 270 355 90 294 247 90 182 207 154 104 78 45 83 107 52 249 193 311 272 291 299 286 335 0 316 357 316 312 287 292 309 276 273 277 277
28 339 42 335 26 328 288 23 99 80 64 88 90 80 204 291 194 198 343 6 280 149 54 318 312 79 313 299 272 333 299 31 279 63 304 151 348 205 274 280 155 59 175 135 320 192 146 266 295 62 227 8 266 145 100 21 132 78 31 229 128 145 126 128 256 334 63 140 268 41 247 302 36 299 324 345 353 295 321 307 299 298 287 287 270 272 275 278
60 66 138 49 320 322 352 357 70 52 77 79 70 149 299 80 6 169 254 3 345 29 93 86 285 71 274 90 328 333 312 70 319 48 251 336 287 152 105 212 221 120 11 290 128 290 106 336 306 308 198 255 357 330 7 3 83 188 198 192 95 292 318 329 90 333 337 299 285 302 288 262 190 258 324 300 309 290 297 300 312 297 291 264 268 274 275 279
63 91 26 329 340 331 302 74 67 67 68 64 65 92 305 106 282 106 247 200 198 222 65 258 271 343 132 76 258 280 330 59 330 68 69 299 38 179 130 168 324 138 306 165 57 202 31 173 296 296 138 317 334 85 264 272 8 51 54 30 357 107 180 124 203 186 121 270 19 292 36 275 203 227 204 266 277 286 284 301 279 263 260 264 265 269 274 279
32 28 342 304 324 32 164 71 65 48 59 99 191 125 226 55 219 266 342 141 19 74 242 103 270 105 249 220 128 317 329 114 126 277 90 279 258 227 265 357 151 282 47 7 122 173 302 116 246 281 297 337 292 202 208 155 154 333 49 323 359 9 221 104 351 145 196 197 197 269 322 279 267 195 201 257 269 271 256 263 272 273 267 261 261 269 277 275
1 97 287 326 329 54 36 48 44 36 89 221 102 150 7 203 186 278 276 324 109 323 164 181 157 164 213 58 296 227 287 61 87 234 185 293 170 322 28 92 305 136 26 39 79 345 78 119 218 310 353 262 236 235 212 170 169 172 162 202 175 121 174 319 273 39 76 112 239 127 271 280 277 129 220 235 255 249 257 232 265 277 278 277 280 275 266 277
82 45 316 351 298 105 73 51 23 75 94 87 82 146 114 109 70 316 5 332 63 137 10 104 337 123 142 184 182 204 145 312 238 32 249 175 256 126 359 5 39 230 134 208 184 249 145 168 82 283 225 244 256 324 310 251 133 188 161 230 146 125 102 107 246 276 17 246 107 158 6 271 240 189 196 221 233 244 259 241 265 278 279 282 281 276 274 260
46 130 247 23 352 88 65 64 311 43 60 245 290 18 21 36 108 326 70 353 357 68 25 39 195 98 247 298 245 133 191 273 167 239 198 246 262 230 306 318 331 327 92 349 12 280 94 78 359 268 294 307 323 331 1 86 114 337 342 86 111 175 179 179 178 173 156 215 259 339 239 259 278 188 203 232 248 271 267 233 269 279 280 282 282 287 287 288
135 86 342 317 73 110 77 104 88 27 23 342 70 75 245 138 94 13 350 323 105 345 67 308 333 115 41 69 115 321 188 333 236 130 315 122 279 91 2 8 346 170 36 184 130 292 24 291 120 311 345 328 342 351 1 349 79 214 216 223 158 85 72 140 108 127 284 212 174 133 248 272 273 93 287 280 309 296 291 285 224 275 292 287 288 291 288 283
111 299 354 312 7 56 94 176 126 139 171 117 70 30 354 29 77 96 157 348 32 103 43 7 2 303 31 355 55 31 354 98 296 14 66 221 247 40 15 14 321 117 41 311 257 306 148 231 108 322 317 324 320 323 293 290 235 240 213 192 268 148 133 123 243 115 194 277 150 185 249 258 281 294 285 282 290 297 294 283 280 242 260 286 298 294 292 290
31 110 321 350 14 44 73 54 101 127 111 139 47 314 109 33 25 12 112 97 161 114 128 236 352 81 72 30 11 9 321 358 116 282 16 288 290 352 284 317 55 141 285 216 9 48 179 321 197 173 169 213 228 241 262 91 27 238 255 162 225 176 201 106 101 122 215 203 190 234 226 281 299 292 297 303 311 306 306 310 308 306 300 286 275 281 285 286
123 65 1 339 338 49 64 27 20 35 97 165 95 299 1 351 257 4 103 72 351 122 299 105 204 36 293 55 295 300 216 288 22 291 237 218 256 249 155 244 154 196 304 294 218 85 67 297 238 208 230 233 243 262 254 67 276 276 276 266 194 180 173 163 174 222 155 96 277 248 233 250 261 275 287 294 300 304 305 305 304 302 296 293 290 292 290 288
68 232 113 202 109 324 14 356 41 57 13 60 120 57 61 356 12 10 337 42 131 317 75 332 65 212 182 169 144 302 315 289 11 244 329 220 340 323 9 195 243 349 338 348 355 134 152 212 284 138 258 251 273 278 292 289 249 267 266 265 246 189 159 194 225 216 137 212 243 267 127 226 272 275 281 284 285 289 295 294 297 294 293 292 293 289 285 280
112 150 145 309 88 236 136 258 78 98 59 75 130 65 17 52 5 265 196 326 29 352 32 354 337 352 264 281 119 285 270 12 316 267 186 307 227 338 328 344 115 30 40 17 3 171 82 254 271 90 284 290 283 280 287 237 279 283 260 257 240 174 211 210 235 219 201 235 250 269 284 283 275 276 277 280 292 290 286 294 295 294 288 291 292 288 283 282
20 92 44 15 85 126 262 35 95 52 55 347 78 329 119 139 348 327 10 123 348 340 348 286 299 322 341 256 329 252 243 199 289 300 291 91 317 144 243 214 98 354 68 133 62 296 124 281 63 332 328 295 286 329 37 208 203 276 279 258 203 220 224 229 247 258 229 273 264 268 279 278 275 269 277 283 280 280 295 286 282 282 287 290 294 291 287 284
154 150 151 105 42 331 4 20 45 82 60 347 63 306 81 178 216 187 261 230 164 237 176 249 161 283 115 78 271 265 240 222 246 243 224 168 247 222 150 303 123 129 46 72 48 328 74 267 59 53 352 298 319 12 318 276 234 244 273 288 260 181 237 216 200 217 166 225 256 350 270 262 267 294 283 264 266 280 282 290 296 296 297 292 290 289 289 287
83 201 77 107 86 324 46 330 6 63 21 247 139 262 158 256 222 198 338 137 95 133 182 178 225 106 299 7 278 240 232 199 231 239 223 233 280 187 207 218 131 149 180 165 245 158 161 116 10 11 346 264 263 318 316 321 328 326 285 235 202 201 198 259 264 214 217 167 191 231 246 251 290 304 315 303 301 296 292 275 285 306 303 293 282 284 286 284